Location: Bottenau
(48.5138°N, 8.0462°E)
Time: 05:15:30
(UTC+00:00)

Resurs 1-3 - Pass Details

Date: 18 April 2021
Orbit: 629 x 633 km, 97.9° (Epoch: 09 May)

Event Time Altitude Azimuth Distance (km) Brightness Sun altitude
Exits shadow 19:23:13 - 158° (SSE) 2,295 6.0 -9.9°
Reaches altitude 10° 19:23:55 10° 157° (SSE) 2,010 5.7 -10.0°
Maximum altitude 19:28:16 72° 74° (ENE) 669 3.6 -10.6°
Drops below altitude 10° 19:32:40 10° 350° (N) 2,024 6.8 -11.2°
Sets 19:34:52 0° 349° (NNW) 2,936 7.7 -11.5°
